Tracking 30995 objects as of 5-Jul-2025
HD Live streaming from Space Station
objects crossing your sky now

FORMOSAT 3E

Track FORMOSAT 3E now!
10-day predictions
FORMOSAT 3E is classified as:


NORAD ID: 29051
Int'l Code: 2006-011E
Perigee: 747.0 km
Apogee: 843.3 km
Inclination: 72.0 °
Period: 100.6 minutes
Semi major axis: 7166 km
RCS: 0.58 m2 (medium)
Launch date: April 15, 2006
Source: Taiwan (Republic of China) (ROC)
Launch site: AIR FORCE WESTERN TEST RANGE (AFWTR)
Your satellite tracking list
Your tracking list is empty




NASA's NSSDC Master Catalog

Two Line Element Set (TLE):
1 29051U 06011E   25186.60100149  .00000222  00000-0  97537-4 0  9999
2 29051  72.0046 290.9223 0067231 331.2215  28.5219 14.31119500  5671
Source of the keplerian elements: AFSPC